Gastonia, NC

5:51 AM EST on February 25, 2017 (GMT -0500)
Gastonia Municipal

Weather History for KAKH - January, 2013

Change the Weather History Date:

Wednesday, January 9, 2013

  Actual Average (KCLT) Record (KCLT)
Temperature  
Mean Temperature 52 °F -  
Max Temperature 64 °F 46 °F 72 °F (2008)
Min Temperature 41 °F 29 °F 4 °F (1970)
Degree Days  
Heating Degree Days 12    
Growing Degree Days 2 (Base 50)    
Moisture  
Dew Point 45 °F    
Average Humidity 76    
Maximum Humidity 93    
Minimum Humidity 56    
Precipitation  
Precipitation 0.00 in - - ()
Sea Level Pressure  
Sea Level Pressure 30.40 in    
Wind  
Wind Speed 2 mph (NNE)    
Max Wind Speed 6 mph    
Max Gust Speed -    
Visibility 9 miles    
Events      
Averages and records for this station are not official NWS values.
T = Trace of Precipitation, MM = Missing Value Source: NWS Daily Summary

Daily Weather History Graph

Daily Weather History Graph

Search for Another Location

Airport or City:

Trip Planner

Search our weather history database for the weather conditions in past years. The results will help you decide how hot, cold, wet, or windy it might be!

Date:

Astronomy

Jan. 09, 2013 Rise Set
Actual Time 7:33 AM EST 5:30 PM EST
Civil Twilight 7:05 AM EST 5:58 PM EST
Nautical Twilight 6:34 AM EST 6:29 PM EST
Astronomical Twilight 6:03 AM EST 7:00 PM EST
Moon 5:11 AM EST (1/9) 3:30 PM EST (1/9)
Length of Visible Light 10h 52m
Length of Day
9h 56m
Waning Crescent, 6% of the Moon is Illuminated
Jan 9
Waning Crescent
Jan 11
New
Jan 18
First Quarter
Jan 26
Full
Feb 3
Last Quarter

Hourly Weather History & Observations

Time (EST) Temp. Windchill Dew Point Humidity Pressure Visibility Wind Dir Wind Speed Gust Speed Precip Events Conditions
12:54 AM 46.9 °F - 39.0 °F 74% 30.38 in 10.0 mi North 3.5 mph - N/A   Overcast
1:17 AM 48.2 °F - 39.2 °F 71% 30.38 in 10.0 mi North 3.5 mph - N/A   Overcast
1:54 AM 46.9 °F - 39.0 °F 74% 30.39 in 10.0 mi Calm Calm - N/A   Overcast
2:36 AM 44.6 °F 42.2 °F 39.2 °F 81% 30.39 in 9.0 mi North 4.6 mph - N/A   Scattered Clouds
2:54 AM 45.0 °F - 39.0 °F 80% 30.40 in 9.0 mi Calm Calm - N/A   Scattered Clouds
3:54 AM 43.0 °F 40.3 °F 39.0 °F 86% 30.39 in 9.0 mi NNE 4.6 mph - N/A   Clear
4:54 AM 42.1 °F 39.2 °F 37.9 °F 85% 30.38 in 8.0 mi Variable 4.6 mph - N/A   Clear
5:54 AM 41.0 °F - 37.9 °F 89% 30.40 in 7.0 mi Calm Calm - N/A   Clear
6:54 AM 43.0 °F - 41.0 °F 93% 30.40 in 6.0 mi Calm Calm - N/A   Overcast
7:54 AM 45.0 °F - 42.1 °F 90% 30.42 in 6.0 mi Calm Calm - N/A   Overcast
8:54 AM 48.0 °F - 41.0 °F 77% 30.45 in 7.0 mi ENE 4.6 mph - N/A   Overcast
9:54 AM 51.1 °F - 42.1 °F 71% 30.45 in 8.0 mi NE 3.5 mph - N/A   Overcast
10:54 AM 59.0 °F - 44.1 °F 58% 30.45 in 10.0 mi Calm Calm - N/A   Clear
11:54 AM 62.1 °F - 46.9 °F 58% 30.42 in 10.0 mi Variable 3.5 mph - N/A   Clear
12:54 PM 64.0 °F - 48.9 °F 58% 30.39 in 10.0 mi Variable 5.8 mph - N/A   Clear
1:54 PM 64.9 °F - 48.9 °F 56% 30.38 in 10.0 mi South 5.8 mph - N/A   Clear
2:54 PM 64.9 °F - 50.0 °F 58% 30.38 in 10.0 mi Calm Calm - N/A   Clear
3:54 PM 63.0 °F - 50.0 °F 63% 30.38 in 10.0 mi South 3.5 mph - 0.00 in   Clear
4:54 PM 61.0 °F - 51.1 °F 70% 30.39 in 10.0 mi Calm Calm - N/A   Clear
5:54 PM 59.0 °F - 51.1 °F 75% 30.40 in 10.0 mi Calm Calm - N/A   Clear
6:54 PM 55.9 °F - 50.0 °F 80% 30.40 in 10.0 mi Calm Calm - N/A   Partly Cloudy
7:54 PM 55.0 °F - 50.0 °F 83% 30.39 in 10.0 mi Calm Calm - N/A   Clear
8:54 PM 54.0 °F - 48.9 °F 83% 30.40 in 10.0 mi Calm Calm - N/A   Clear
9:54 PM 54.0 °F - 48.9 °F 83% 30.42 in 10.0 mi Calm Calm - N/A   Clear
10:54 PM 55.9 °F - 50.0 °F 80% 30.44 in 10.0 mi Calm Calm - N/A   Clear
11:54 PM 52.0 °F - 48.9 °F 89% 30.45 in 10.0 mi Calm Calm - N/A   Clear